Regional Weather Roundup
Issued by NWS Wakefield, VA

Home | Current Version | Previous Version | Graphics & Text | Print | Product List | Glossary On
Versions: 1 2 3 4 5 6 7 8 9 10 11 12 13 14 15 16 17 18 19 20 21 22 23 24 25 26 27 28 29 30 31 32 33 34 35 36 37 38 39 40 41 42 43 44 45 46 47 48 49 50
248
ASUS41 KAKQ 290515
RWRAKQ

REGIONAL WEATHER ROUNDUP
NATIONAL WEATHER SERVICE WAKEFIELD VA
100 AM EDT SAT JUL 29 2017

Note: "fair" indicates few or no clouds below 12,000 feet with no
significant weather and/or obstructions to visibility. * = Denotes
station may not report precipitation (e.g., rain,snow,etc.),
thunder or fog.

VAZ042-051-052>054-056-290600-
NORTHERN VIRGINIA

CITY           SKY/WX    TMP DP  RH WIND       PRES   REMARKS
WASH NATIONAL  HVY RAIN  71  71 100 NE21      29.67S FOG
DULLES         RAIN      70  68  93 NE10      29.68F FOG
FORT BELVOIR   HVY RAIN  72  70  94 N5        29.65R FOG
QUANTICO       LGT RAIN  74  73  97 N5        29.64F
FREDERICKSBRG* CLOUDY    73  73 100 SW5       29.64F
STAFFORD*      CLOUDY    72  72 100 W3        29.69S
WARRENTON      LGT RAIN  71  67  87 N12G21    29.67R
CULPEPER*      LGT RAIN  72  71  99 N8        29.68R
MANASSAS*      HVY RAIN  70  68  93 NE10G20   29.68R
LEESBURG*      HVY RAIN  70  70 100 NE14G24   29.70F
WINCHESTER     LGT RAIN  66  64  94 N5        29.73R
FRONT ROYAL*   CLOUDY    68  68 100 N7        29.71S
LURAY*         LGT RAIN  66  66 100 N3        29.72R
$$

VAZ048-049-060>072-079>083-290600-
CENTRAL AND SOUTH CENTRAL VIRGINIA

CITY           SKY/WX    TMP DP  RH WIND       PRES   REMARKS
RICHMOND       CLOUDY    73  71  93 S10       29.66F
CHESTERFIELD*  RAIN      71  70  96 S7        29.67F FOG
PETERSBURG*    LGT RAIN  70  70 100 CALM      29.68F
HANOVER        CLOUDY    73  69  87 S6        29.67S
TAPPAHANNOCK*  CLOUDY    73  73 100 SW6       29.66S
QUINTON*       CLOUDY    72  72 100 CALM      29.66S
CHARLOTTSVILLE LGT RAIN  72  70  93 N5        29.67S
GORDONSVILLE*  CLOUDY    71  71 100 CALM      29.67S
ORANGE*        CLOUDY    70  70 100 CALM      29.67R
LOUISA*        CLOUDY    72  70  94 W3        29.67S FOG
BUMPASS*       MOCLDY    71  71 100 CALM      29.66S
FARMVILLE*     CLOUDY    73  72  94 CALM      29.65F
CREWE*         MOCLDY    71  67  87 S3        29.67F
FORT PICKETT*  MOCLDY   N/A N/A N/A S8        29.67F
CHASE CITY*    CLOUDY    72  72  99 SE3       29.68S
CLARKSVILLE*   CLOUDY    72  72 100 SW3       29.67S
SOUTH HILL*    CLOUDY    71  71 100 CALM      29.73F
LAWRENCEVILLE* CLOUDY    71  70  97 SE3       29.67F
EMPORIA*       LGT RAIN  72  72 100 SE3       29.69F
$$

VAZ088>098-290600-
SOUTHEAST VIRGINIA

CITY           SKY/WX    TMP DP  RH WIND       PRES   REMARKS
NORFOLK        CLOUDY    74  73  97 S3        29.67S
VIRGINIA BEACH CLOUDY    74  71  91 SW3       29.67S
NORFOLK NAVAL  LGT RAIN  74  71  91 S3        29.68F
WEST POINT*    CLOUDY    73  72  95 CALM      29.68S
SALUDA*        CLOUDY    73  73 100 S3        29.66F
NEWPORT NEWS   CLOUDY    74  72  93 S3        29.67S
LANGLEY AFB    LGT RAIN  73  73 100 S6        29.66F
FORT EUSTIS    CLOUDY    74  71  92 SW7       29.67R
WILLIAMSBURG*  CLOUDY    73  73 100 CALM      29.70R
HR EXEC AP*    FAIR      72  70  94 S3        29.65F
FRANKLIN*      RAIN      72  70  94 S6        29.69F
US460-WAKEFLD  RAIN      72  72 100 S5        29.68R FOG
$$

VAZ020-022-025-037-045-290600-
WEST CENTRAL AND SOUTHWEST VIRGINIA

CITY           SKY/WX    TMP DP  RH WIND       PRES   REMARKS
STAUNTON*      RAIN      64  63  96 N9        29.75F
WAYNESBORO*    CLOUDY    64  64 100 NW10G24   29.73S
HOT SPRINGS VA RAIN      59  59 100 CALM      29.84S VSB<1/4
LYNCHBURG      CLOUDY    71  70  96 CALM      29.68F
DANVILLE       CLOUDY    73  73 100 CALM      29.68S
SOUTH BOSTON*  CLOUDY    73  72  96 S5        29.67S
MARTINSVILLE   MOCLDY    70  69  98 SW3       29.70F FOG
ROANOKE        MOCLDY    72  70  93 N5        29.71F
BLACKSBURG     CLOUDY    69  68  96 CALM      29.79S
DUBLIN*        CLOUDY    71  64  78 N3        29.78F
MARION*        CLOUDY    70  66  86 W6        29.83S
HILLSVILLE*    CLOUDY    69  65  86 CALM      29.79S
RICHLANDS*     CLOUDY    67  63  87 N3        29.84S FOG
WISE*          CLOUDY    68  68 100 N10       29.87S
ABINGDON*      CLOUDY    72  70  94 N3        29.80F
$$

MDZ021>025-VAZ099-100-290600-
SOUTHERN MARYLAND AND THE DELMARVA PENINSULA

CITY           SKY/WX    TMP DP  RH WIND       PRES   REMARKS
PATUXENT RIVER PTCLDY    73  73 100 SE5       29.63F
BAY BRIDGE APT HVY RAIN  72  70  94 E10       29.67F FOG
LEONARDTOWN    CLOUDY    72  70  94 CALM      29.65F
DOVER          LGT RAIN  72  72 100 SE9       29.68F
GEORGETOWN     LGT RAIN  71  69  93 NE7       29.68F FOG
EASTON         RAIN      72  70  94 E12       29.67F
CAMBRIDGE      CLOUDY    72  72 100 E7        29.65F FOG
SALISBURY      RAIN      71  71 100 CALM      29.67S FOG
OCEAN CITY     CLOUDY    73  73 100 VRB3      29.67F
WALLOPS ISLAND LGT RAIN  73  73 100 E3        29.68S
ACCOMACK*      CLOUDY    74  73  95 CALM      29.67S
$$

NCZ012>017-030>032-290600-
NORTH CENTRAL AND EASTERN NORTH CAROLINA

CITY           SKY/WX    TMP DP  RH WIND       PRES   REMARKS
ROANOKE RAPIDS FAIR      72  72 100 S3        29.68F
RALEIGH        MOCLDY    76  74  93 S5        29.68F
ELIZABETH CITY LGT RAIN  77  77 100 S3        29.69R
AHOSKIE*       RAIN      71  70  98 S3        29.70F
EDENTON*       LGT RAIN  79  76  91 CALM      29.70F
CURRITUCK*     CLOUDY    77  74  91 CALM      29.69S FOG
KILL DEVIL HLS CLOUDY    79  79 100 CALM      29.68F
MANTEO         CLOUDY    79  76  91 SW17      29.70F
CAPE HATTERAS  CLOUDY    81  78  91 SW9       29.71F
TARBORO*       NOT AVBL
GOLDSBORO      CLOUDY    79  79 100 SW5       29.68F
WASHINGTON     DRIZZLE   78  76  93 SW5       29.70S
GREENVILLE     LGT RAIN  73  73 100 CALM      29.71F
NEW BERN       CLOUDY    79  78  97 S8        29.71F
WILMINGTON     PTCLDY    78  76  93 S6        29.72F
$$

VAZ048-290600-
ELSEWHERE

CITY           SKY/WX    TMP DP  RH WIND       PRES   REMARKS
HARRISBURG PA  RAIN      69  68  96 N7        29.76F FOG
BALTIMORE      HVY RAIN  70  70 100 NE10      29.70S VSB 3/4
ANNAPOLIS      HVY RAIN  74  73  97 E7        29.67S FOG
ANDREWS AFB    HVY RAIN  70  70 100 N13       29.64S FOG
PHILADELPHIA   LGT RAIN  74  69  85 NE10      29.73F
HENDERSON NC   CLOUDY    70  68  95 S5        29.69S
GREENSBORO     CLOUDY    73  73 100 SW7       29.70R
ROCKY MOUNT    CLOUDY    74  73  97 CALM      29.69F
$$

VAZ100-290600-
MARINE

STATION/POSITION TIME  TEMP    WIND        PRES    WAVE   SWELL
                       AIR SEA DIR/SP/G            HT/PER HT/PER
                 (UTC) (F)     (DEG/KT/KT) (MB)    (FT/S) (FT/S)
BRANDYWINE LGT   0448   72     120/ 13/ 14 1005.7F
CAPE MAY NJ      0448   71 76  100/  5/  9 1005.0F
LEWES DE         0448   72 75  100/  9/ 11 1004.6F
15NM E FENWICK I 0350   74 76  110/ 17/ 19 1005.9    3/ 6   2/12
OCEAN-CITY-INLET 0448   73 74  100/  5/  6 1004.8F
WACHAPREAGUE VA  0448   75 81  220/  2/  4 1004.5F
THOMAS POINT MD  0500   71 80   60/ 18/ 20   N/A
GOOSES REEF MD   0450   75     140/ 12/ 14 1004.4F
COVE POINT MD    0448   76     190/ 10/ 14 1004.0F
SOLOMONS ISLAND  0448   75 83  160/  7/  8   N/A
BISHOPS HEAD MD  0448   75 80  140/  5/  7 1004.0F
PINEY POINT MD   0448          210/  9/ 10   N/A
POTOMAC MD       0450   76     170/ 12/ 14 1002.8F
CAMBRIDGE MD     0448   72 83              1004.7F
LEWISETTA VA     0448   74 81  220/  7/  8 1003.5F
RAPPAHANNOCK LGT 0448          190/  9/ 11 1005.1F
STINGRAY PT      0450   77     220/  8/ 10 1004.6F
YORK RVR RNG VA  0448   76     190/  7/  9 1004.8F
YORKTOWN VA      0448   74 82  230/  3/  4 1004.2F
JAMESTOWN VA     0450          250/  8/ 12   N/A
DOMINION TERM VA 0448   75     170/  6/  7 1004.6F
KIPTOPEKE VA     0448      78  170/  8/  8   N/A
CHES BAY BRIDGE  0448   75 70  190/  5/  6 1004.6F
CAPE HENRY VA    0448   74      CALM  /  2   N/A
WILLOUBY STN VA  0448   75     170/  7/  8 1004.5F
S CRANEY ISL VA  0448   75     200/  5/  7 1004.6F
CAPE HENRY BUOY  0430      73                N/A     2/ 4
1ST LANDING BUOY 0450   76                 1004.8F
64NM E OF VA BCH 0450   78 76  200/ 12/ 14 1005.5F   3/ 4   2/ 8
DUCK PIER NC     0448   80 62  200/ 13/ 17 1004.7F
44100 DUCK FRF   0405      73                N/A     2/ 8
44056 DUCK FRF   0430      71                N/A     2/ 8
OREGON INLET NC  0436   81 78  190/ 18/ 22 1005.6F
HATTERAS NC      0448   80 80  210/  8/ 12 1006.1F
DIAMOND SHLS NC  0450   83 83  220/ 17/ 19 1006.0F   4/ 5   2/ 9
CAPE LOOKOUT NC  0400   81     210/  9/ 11 1006.5F
$$




USA.gov is the U.S. government's official web portal to all federal, state and local government web resources and services.